Wetbulb
67.83 65.62 64.29 60.85 51.53 50.68 47.06 47.52 51.15 50.75 52.17 55.47 54.87 54.63 55.83 56.89 57.34 55.12 67.54 69.89 69.61 71.09 73.66 74.41 74.54 73.91 72.81 71.65 70.80 70.17 69.27 68.16 68.34 68.88 67.85 67.15 67.77 67.39 68.16 67.70 66.88 66.30 66.26 65.74 65.34 65.29 65.30 65.40 66.03
66.03 62.99 62.70 57.91 48.35 45.14 46.62 50.73 48.89 51.99 54.22 55.05 55.38 55.68 55.28 56.05 61.03 63.92 65.91 69.07 70.15 71.55 74.04 73.52 74.63 74.08 72.68 71.65 70.80 69.97 69.62 67.85 68.54 68.55 67.63 66.88 67.52 67.78 67.19 67.64 67.37 66.23 66.11 65.59 65.14 65.57 66.07 65.52 65.19
63.98 61.00 56.88 52.64 48.83 45.22 46.42 50.64 51.23 53.33 54.90 53.67 55.04 58.04 57.73 58.09 63.44 64.80 68.37 69.84 70.32 71.84 73.74 73.76 74.63 73.96 72.86 71.67 70.80 69.64 69.26 68.20 67.66 67.61 67.44 67.36 67.74 67.20 68.43 67.48 66.65 66.59 66.35 65.37 65.46 65.53 65.83 65.85 66.10
62.13 60.05 57.12 48.64 46.30 49.44 49.69 51.27 52.66 52.96 54.70 55.35 55.03 54.72 59.67 62.61 64.40 66.37 68.69 70.21 70.05 71.57 73.58 74.01 74.16 73.98 73.25 72.26 70.86 69.97 68.84 68.08 67.93 68.01 67.07 67.07 67.71 68.12 67.45 67.00 68.28 67.59 66.41 65.63 65.63 65.73 66.44 66.56 66.76
61.89 57.83 49.29 47.08 47.48 50.51 52.17 53.24 53.46 52.43 53.38 54.22 55.22 54.33 56.64 62.84 66.32 67.30 69.35 70.62 69.95 71.08 72.86 74.09 74.44 74.09 73.38 72.18 71.13 70.47 69.05 68.14 67.73 67.52 66.98 67.29 68.67 69.40 69.25 68.56 68.18 67.58 66.43 65.95 66.26 67.15 67.30 67.17 66.89
54.70 55.28 46.34 44.30 47.14 50.43 52.33 53.96 53.49 53.24 54.02 54.44 53.92 54.32 56.94 63.54 65.98 68.44 70.15 70.59 71.14 71.05 72.53 73.06 73.53 73.79 73.31 72.51 71.66 70.76 69.61 68.65 67.51 67.61 66.79 66.95 68.08 68.76 69.74 69.05 68.22 67.60 66.81 67.25 67.10 67.72 67.71 67.52 67.83
52.64 50.27 46.02 46.79 47.03 48.62 50.94 54.34 52.59 52.78 53.24 53.56 56.05 53.50 57.80 60.83 67.10 69.75 70.36 71.03 71.34 71.42 72.26 72.50 73.29 72.82 72.40 72.14 71.78 71.21 69.84 69.23 67.90 67.39 67.12 67.98 67.83 68.09 69.83 69.47 68.48 67.55 67.62 67.36 67.74 68.01 68.36 68.58 68.46
55.88 52.16 46.87 47.59 46.27 46.98 51.91 52.79 54.08 53.29 52.93 55.45 57.08 53.29 55.02 59.92 66.84 69.45 69.87 70.32 70.74 71.09 71.71 71.93 72.28 71.75 72.29 72.03 71.09 70.76 70.30 69.57 69.16 69.10 68.47 67.80 67.37 67.01 68.69 68.86 68.35 67.49 67.32 67.65 68.13 68.53 66.96 66.29 65.04
57.27 48.42 45.14 46.71 47.17 48.67 52.69 51.39 54.83 55.50 54.15 55.44 56.50 56.55 58.20 60.65 65.77 67.58 68.01 68.76 69.30 69.92 71.04 71.84 71.71 72.26 72.80 71.91 70.57 70.14 69.60 68.95 68.40 68.08 66.85 65.92 67.62 66.32 65.85 65.76 66.43 66.91 67.46 67.22 67.02 63.50 61.32 60.02 59.55
52.41 47.61 47.10 51.13 51.89 50.32 52.22 52.50 53.23 53.13 53.57 54.44 55.90 58.30 58.48 60.64 63.04 64.51 65.54 66.44 67.70 68.69 69.94 71.28 71.79 72.22 72.17 71.00 70.93 69.81 68.84 69.26 68.70 68.15 67.99 67.58 66.07 64.82 66.01 64.98 65.49 65.55 65.71 63.95 61.15 58.69 56.99 61.13 60.15
51.44 47.50 50.83 51.45 52.89 53.24 52.13 52.54 54.64 52.73 51.39 54.58 54.98 56.65 58.02 58.58 60.17 62.26 63.96 65.40 67.21 68.98 70.22 71.00 71.01 72.02 71.67 71.26 70.50 69.74 69.21 69.45 69.31 68.57 68.32 66.22 65.47 65.85 66.27 66.76 66.79 68.16 64.56 63.77 61.93 60.78 58.36 56.70 55.59
46.82 50.53 51.25 51.58 53.39 53.28 52.11 54.41 52.90 53.49 53.69 56.61 57.51 57.58 58.54 59.24 59.63 59.28 62.31 64.26 65.94 68.06 69.59 70.80 71.09 70.92 71.18 71.56 70.32 70.06 69.19 69.21 69.01 68.65 68.09 66.30 65.33 66.05 66.24 67.43 67.37 65.28 61.47 60.46 59.38 58.28 55.34 53.34 52.11
48.14 49.24 50.72 52.13 52.47 52.49 53.05 51.37 52.10 52.75 56.23 58.14 58.47 58.63 58.98 59.47 59.87 60.44 60.49 63.44 65.69 66.47 68.75 70.26 70.56 70.37 70.67 70.76 70.28 69.53 69.22 69.06 69.18 68.36 68.04 67.08 66.44 66.59 66.43 62.22 60.01 59.15 59.04 57.69 56.53 54.65 52.36 51.15 50.46
48.51 48.98 49.59 50.53 50.49 51.11 49.44 50.15 51.35 52.69 55.63 55.39 56.04 56.56 58.15 58.98 59.59 60.04 60.20 60.22 63.13 65.52 67.02 69.78 70.48 70.67 70.55 70.34 70.47 70.05 69.66 69.11 69.14 68.75 67.32 67.40 67.13 66.78 61.02 55.72 54.69 56.75 55.21 53.37 52.30 51.31 50.97 50.10 49.29
48.95 45.35 47.70 48.40 49.02 48.46 50.83 46.85 47.68 52.66 53.96 53.02 54.34 55.55 56.36 57.63 59.54 59.78 60.56 60.63 61.18 62.42 64.55 66.55 69.52 70.85 69.00 70.05 70.81 70.27 69.58 69.00 68.61 68.20 67.85 67.47 65.80 60.89 56.52 52.30 52.53 53.36 52.13 51.05 50.93 50.46 50.41 49.46 48.58
44.58 44.94 40.83 46.34 47.63 48.48 47.84 41.63 48.44 53.24 53.00 52.53 53.55 54.35 54.91 56.05 57.16 59.37 60.58 61.08 61.42 61.46 61.09 61.54 64.60 69.00 70.04 70.87 70.51 70.06 69.47 68.92 68.07 68.18 67.42 63.54 59.00 55.52 52.47 52.49 52.44 51.36 51.00 50.86 49.57 48.21 48.73 48.15 47.94
42.26 37.93 39.62 42.02 47.27 47.15 46.67 44.09 48.90 52.05 52.17 51.71 52.65 54.07 54.97 55.79 56.66 58.17 59.63 60.61 60.86 61.06 61.14 61.02 62.44 65.09 68.37 69.75 69.60 69.61 69.05 67.48 65.01 64.35 61.01 57.40 55.21 51.71 50.13 51.42 50.63 50.25 49.32 48.65 47.76 47.02 46.81 46.36 46.65
37.25 37.23 39.01 39.10 43.79 44.91 43.56 43.80 47.85 50.42 50.00 49.91 51.35 53.39 54.40 54.81 55.99 58.14 59.07 60.15 60.51 60.92 61.00 61.41 63.51 65.30 67.51 68.14 68.19 67.93 65.49 62.29 60.60 58.97 56.62 53.39 52.08 52.43 52.42 50.76 49.49 49.18 48.10 47.02 46.80 45.79 45.88 45.11 45.04
39.51 38.59 38.26 41.43 44.35 42.24 41.49 42.42 44.90 47.79 48.27 48.19 49.36 50.50 51.83 53.66 56.54 57.69 59.07 60.16 60.20 60.51 60.91 61.91 63.98 66.15 67.06 65.87 63.84 59.83 57.93 55.62 54.13 51.92 51.20 49.83 49.06 49.96 51.10 49.85 48.65 48.17 46.87 45.72 45.28 45.45 44.28 44.02 44.46
39.29 37.50 37.68 41.01 42.97 41.35 40.92 40.18 43.70 45.13 45.58 47.04 48.09 49.30 50.52 52.07 53.98 55.84 57.38 58.86 58.83 59.92 61.27 62.65 64.74 65.93 66.39 65.15 64.77 62.74 58.77 55.91 53.52 47.62 46.87 46.83 47.37 48.79 50.19 49.21 47.71 46.87 45.85 45.03 44.51 44.52 44.28 43.63 43.39
38.30 37.18 37.37 36.68 40.24 41.44 39.32 37.70 41.92 44.81 45.90 46.49 47.05 48.15 49.06 49.88 51.48 53.87 55.58 57.26 58.58 59.34 60.98 62.87 64.55 65.15 65.20 64.70 63.60 59.13 53.67 50.15 45.45 44.00 43.80 44.81 46.46 47.63 48.54 47.71 46.69 46.04 45.73 44.15 43.97 43.66 42.69 42.00 42.76
34.58 39.83 38.19 36.37 34.47 30.84 38.23 30.57 39.21 42.63 43.24 44.70 46.45 47.66 48.44 49.64 50.84 52.06 54.22 55.48 57.32 58.87 61.29 63.48 64.25 63.90 64.32 63.42 58.20 54.99 55.39 52.47 47.53 45.05 43.10 44.45 46.04 47.36 46.80 46.19 45.84 44.99 44.59 43.66 42.61 42.53 42.40 42.48 40.51
35.63 39.26 37.42 37.17 35.13 33.14 34.60 29.32 36.42 40.93 40.01 42.71 45.68 47.46 48.98 50.12 50.82 51.68 52.58 54.23 56.76 58.81 60.67 63.12 63.48 63.11 62.35 59.25 58.44 59.40 56.92 53.47 46.23 42.96 42.73 43.76 46.04 46.21 45.40 45.19 44.69 43.84 43.39 42.82 42.32 41.81 41.62 41.84 41.26
40.28 37.31 36.66 35.96 33.27 26.80 33.21 31.73 33.09 37.85 40.82 42.58 44.84 47.04 48.54 49.59 51.07 52.08 54.38 54.90 55.80 58.75 60.36 62.16 61.91 61.85 59.33 57.96 60.00 58.54 54.46 46.29 41.81 42.52 41.87 43.56 45.12 44.49 44.10 43.81 43.72 43.21 42.56 42.06 41.80 41.49 40.68 41.31 40.74
38.32 33.87 28.41 24.91 24.49 25.61 35.21 32.05 34.76 40.26 42.28 43.64 44.48 46.28 47.99 49.40 50.33 51.31 52.74 54.18 55.16 57.01 59.05 60.79 61.15 58.92 57.58 56.30 56.07 53.35 49.94 45.38 42.92 43.63 43.62 44.71 43.81 43.25 42.67 42.81 42.31 42.16 41.76 41.42 41.36 41.12 41.05 40.54 39.80
34.77 34.53 28.68 21.42 24.31 27.92 34.73 28.71 34.63 42.53 44.53 45.70 46.38 46.89 49.48 50.42 51.26 50.78 52.43 54.13 55.16 56.65 58.18 59.56 60.09 57.10 56.48 56.17 52.45 48.98 45.71 47.16 45.42 46.16 46.41 45.74 44.80 43.71 42.82 42.19 41.66 41.01 40.70 40.54 40.72 41.09 40.95 40.35 39.77
33.92 30.10 37.08 30.15 31.59 26.21 30.41 35.12 39.72 42.14 42.05 43.83 44.82 47.31 48.22 49.36 50.29 50.64 52.37 53.79 55.48 56.62 57.60 58.47 59.33 58.08 56.39 54.65 51.23 48.20 46.42 46.88 46.20 45.58 46.84 45.70 44.32 42.09 41.69 41.37 40.59 40.39 39.99 39.77 39.88 40.50 39.68 39.15 39.19
37.20 38.48 29.56 30.59 21.58 20.95 28.67 30.10 31.79 37.73 39.62 42.17 44.75 45.92 47.05 48.80 49.70 50.79 51.26 53.46 55.62 57.15 57.64 58.51 58.60 57.05 55.03 51.81 49.65 43.70 46.25 46.37 45.13 45.69 44.60 43.43 42.17 41.13 40.67 40.27 39.98 39.59 39.27 39.25 39.25 39.22 38.84 38.09 38.95
33.44 31.44 33.37 32.72 31.12 22.93 22.30 29.03 39.78 38.49 40.70 41.08 43.94 45.42 46.63 48.38 49.49 50.35 50.77 53.24 55.62 56.82 57.16 57.24 56.72 54.86 51.74 49.16 43.13 43.35 43.00 43.34 43.56 44.42 43.31 42.13 40.99 40.36 39.83 39.47 39.08 38.79 38.56 38.58 38.58 38.11 37.70 37.02 37.21
38.52 34.81 33.45 27.63 25.92 29.47 28.03 28.97 41.13 41.55 42.63 44.82 44.12 45.47 47.60 48.76 49.30 49.90 50.67 53.17 54.76 55.40 55.93 55.73 54.29 51.76 49.29 43.55 43.25 41.99 42.55 43.29 43.31 42.15 41.37 40.80 39.67 39.72 39.06 38.62 38.40 37.94 37.57 37.62 37.16 36.62 37.08 36.43 35.88
MSLP
1013.07 1012.54 1012.28 1011.75 1011.35 1010.03 1008.95 1008.85 1008.83 1008.50 1008.33 1008.26 1008.27 1008.09 1007.35 1007.26 1006.69 1007.59 1009.20 1009.52 1009.84 1010.06 1010.48 1011.58 1012.14 1012.56 1012.86 1013.04 1013.40 1013.66 1013.95 1014.09 1014.14 1014.26 1014.51 1014.61 1014.71 1014.83 1014.88 1015.01 1015.13 1015.23 1015.39 1015.41 1015.41 1015.33 1015.30 1015.29 1015.27
1012.87 1012.38 1011.90 1011.31 1010.57 1009.19 1008.35 1008.74 1008.68 1008.62 1008.62 1008.62 1008.24 1008.03 1007.81 1006.77 1007.61 1008.11 1008.94 1009.93 1009.97 1010.07 1010.39 1011.06 1012.18 1012.59 1013.00 1013.22 1013.56 1013.78 1014.00 1014.23 1014.33 1014.51 1014.64 1014.73 1014.80 1014.83 1014.93 1015.04 1015.15 1015.33 1015.49 1015.58 1015.63 1015.61 1015.56 1015.61 1015.54
1012.92 1012.60 1011.55 1010.78 1009.88 1008.83 1008.41 1008.75 1008.44 1008.88 1008.84 1008.57 1008.04 1008.03 1007.58 1007.29 1008.16 1008.24 1009.11 1009.72 1010.16 1010.28 1010.45 1010.92 1012.09 1012.61 1013.09 1013.41 1013.66 1013.96 1014.12 1014.27 1014.45 1014.58 1014.70 1014.82 1014.93 1014.93 1014.95 1015.07 1015.25 1015.46 1015.62 1015.70 1015.69 1015.74 1015.71 1015.75 1015.68
1012.42 1012.11 1012.01 1010.89 1009.34 1009.08 1009.07 1008.91 1009.02 1008.91 1008.64 1008.62 1008.29 1007.55 1007.69 1008.16 1008.20 1008.73 1009.49 1010.04 1010.09 1010.41 1010.58 1011.61 1011.90 1012.63 1013.09 1013.52 1013.80 1013.98 1014.24 1014.41 1014.51 1014.63 1014.80 1014.91 1015.00 1015.07 1015.09 1015.12 1015.33 1015.57 1015.68 1015.75 1015.71 1015.74 1015.65 1015.70 1015.63
1012.42 1011.75 1010.85 1010.20 1009.28 1009.03 1009.35 1009.27 1009.37 1009.00 1008.80 1008.40 1008.26 1007.32 1007.48 1007.99 1008.70 1009.00 1009.51 1009.98 1010.15 1010.61 1010.81 1011.58 1012.04 1012.55 1013.07 1013.50 1013.80 1014.10 1014.23 1014.49 1014.65 1014.77 1014.87 1014.95 1015.04 1015.04 1014.98 1015.23 1015.43 1015.70 1015.81 1015.81 1015.70 1015.57 1015.66 1015.70 1015.53
1011.96 1011.47 1010.45 1009.55 1009.09 1009.28 1009.55 1009.35 1009.37 1008.88 1008.60 1008.42 1008.22 1007.63 1007.35 1008.28 1008.60 1009.13 1009.48 1009.82 1010.38 1010.81 1011.08 1011.29 1012.26 1012.61 1013.10 1013.53 1013.75 1013.98 1014.27 1014.43 1014.70 1014.82 1014.98 1015.09 1015.14 1015.08 1014.77 1015.32 1015.59 1015.78 1015.87 1015.81 1015.71 1015.63 1015.67 1015.65 1015.51
1011.57 1011.16 1009.97 1009.66 1009.15 1008.97 1009.26 1009.46 1009.21 1008.73 1008.42 1008.21 1008.12 1007.63 1007.33 1007.93 1008.77 1009.32 1009.53 1009.84 1010.51 1010.79 1011.11 1011.26 1011.82 1012.58 1013.15 1013.52 1013.78 1013.97 1014.15 1014.44 1014.64 1014.86 1015.02 1015.19 1015.34 1015.29 1015.31 1015.46 1015.71 1015.87 1015.94 1015.85 1015.78 1015.78 1015.72 1015.59 1015.65
1012.12 1011.18 1010.20 1009.99 1009.33 1008.88 1009.27 1009.49 1009.20 1008.81 1008.32 1008.78 1008.50 1007.65 1007.47 1008.59 1009.22 1009.47 1009.78 1010.04 1010.43 1010.70 1011.00 1011.34 1011.42 1012.24 1012.74 1013.34 1013.86 1014.08 1014.25 1014.39 1014.65 1014.90 1015.15 1015.36 1015.48 1015.51 1015.62 1015.78 1015.88 1016.02 1016.01 1015.98 1015.94 1015.89 1015.98 1015.92 1015.93
1012.82 1011.38 1009.87 1009.65 1009.66 1009.20 1009.66 1009.32 1009.24 1009.23 1008.77 1008.65 1008.45 1008.31 1008.65 1009.24 1009.55 1009.55 1009.68 1010.15 1010.33 1010.65 1010.86 1011.08 1011.27 1011.80 1012.33 1012.65 1013.56 1014.19 1014.41 1014.54 1014.69 1014.92 1015.18 1015.32 1015.09 1015.27 1015.31 1015.93 1016.11 1016.17 1016.08 1016.08 1016.22 1016.24 1016.31 1016.19 1016.11
1012.36 1011.30 1009.83 1009.73 1009.95 1009.79 1009.71 1009.52 1009.25 1009.26 1008.70 1008.44 1008.41 1008.35 1008.78 1009.12 1009.42 1009.38 1009.37 1009.41 1009.72 1010.13 1010.48 1011.00 1011.22 1011.61 1012.10 1012.59 1013.06 1013.53 1013.79 1014.04 1014.24 1014.47 1014.68 1014.82 1015.09 1015.22 1015.33 1015.77 1016.03 1016.28 1016.33 1016.43 1016.41 1016.36 1016.34 1015.94 1015.61
1012.40 1011.17 1010.51 1010.81 1010.85 1010.62 1010.22 1010.00 1009.85 1009.27 1008.60 1008.36 1008.15 1008.12 1008.61 1008.85 1008.88 1009.07 1008.97 1008.83 1009.20 1009.56 1009.95 1010.68 1011.30 1011.69 1012.05 1012.27 1012.80 1013.08 1013.29 1013.62 1013.94 1014.27 1014.47 1014.71 1015.00 1015.20 1015.24 1015.25 1015.39 1015.59 1016.20 1016.04 1016.14 1015.95 1016.04 1016.16 1016.06
1012.80 1011.95 1011.63 1011.38 1011.35 1011.27 1010.77 1010.39 1009.88 1009.35 1008.59 1008.48 1008.71 1008.72 1008.75 1008.52 1008.40 1008.46 1008.55 1008.65 1009.02 1009.39 1009.61 1010.24 1010.98 1011.52 1011.93 1011.90 1012.48 1012.56 1012.81 1013.31 1013.57 1014.05 1014.30 1014.51 1014.71 1014.99 1015.07 1015.00 1015.47 1015.78 1016.15 1016.18 1016.18 1016.09 1016.24 1016.24 1016.23
1012.93 1012.13 1012.19 1012.00 1011.90 1011.60 1011.21 1010.43 1010.15 1009.50 1009.13 1009.17 1008.98 1008.77 1008.52 1008.27 1008.11 1008.03 1008.21 1008.35 1008.64 1009.02 1009.39 1009.88 1010.58 1011.03 1011.59 1011.71 1012.01 1012.16 1012.54 1012.92 1013.13 1013.66 1013.99 1014.04 1014.36 1014.71 1014.99 1015.66 1016.06 1016.10 1016.24 1016.40 1016.31 1016.32 1016.31 1016.27 1016.29
1013.16 1012.81 1012.37 1012.07 1011.80 1011.52 1011.21 1010.23 1010.28 1009.11 1009.14 1008.81 1008.71 1008.37 1008.20 1007.83 1007.69 1007.59 1007.78 1007.91 1008.09 1008.36 1008.73 1009.41 1009.98 1010.58 1011.00 1011.31 1011.44 1011.78 1012.10 1012.54 1012.99 1013.22 1013.72 1014.00 1014.16 1014.68 1015.52 1016.24 1016.49 1016.32 1016.60 1016.83 1016.73 1016.65 1016.73 1016.49 1016.36
1013.46 1012.89 1012.09 1011.54 1011.40 1011.25 1011.08 1009.73 1008.96 1008.42 1008.51 1008.19 1007.98 1007.65 1007.49 1007.31 1007.26 1007.11 1007.10 1007.22 1007.36 1007.69 1008.06 1008.54 1009.21 1009.98 1010.69 1011.00 1011.02 1011.23 1011.64 1012.32 1012.69 1013.06 1013.56 1013.84 1014.65 1015.20 1015.88 1016.50 1016.56 1016.60 1016.97 1016.96 1016.99 1017.00 1016.91 1016.71 1016.41
1013.41 1012.98 1011.89 1011.17 1011.31 1010.96 1011.02 1008.52 1008.30 1008.17 1007.53 1007.66 1007.43 1007.16 1006.91 1006.72 1006.64 1006.55 1006.45 1006.66 1007.12 1007.23 1007.59 1008.26 1008.81 1009.24 1010.19 1010.44 1010.66 1010.83 1011.20 1011.81 1012.34 1012.81 1013.59 1014.31 1014.92 1015.54 1016.11 1016.40 1016.62 1016.88 1017.03 1017.17 1017.23 1017.34 1016.94 1016.82 1016.55
1013.23 1012.18 1011.97 1011.47 1011.27 1010.92 1010.53 1008.62 1008.27 1008.12 1007.89 1007.39 1007.05 1006.78 1006.46 1006.24 1006.15 1006.04 1006.06 1006.18 1006.58 1006.73 1006.97 1007.72 1008.38 1008.63 1009.15 1009.79 1010.40 1010.85 1011.00 1012.05 1012.91 1013.45 1014.00 1014.46 1015.08 1015.74 1016.18 1016.42 1016.83 1017.12 1017.32 1017.44 1017.43 1017.58 1017.34 1017.03 1016.83
1012.26 1012.59 1012.19 1011.60 1011.29 1011.20 1010.22 1008.88 1008.52 1008.34 1008.10 1007.54 1007.05 1006.50 1006.20 1006.07 1005.84 1005.72 1005.64 1005.76 1006.13 1006.25 1006.44 1006.89 1007.58 1008.08 1008.70 1009.56 1010.40 1011.05 1011.72 1012.39 1012.95 1013.54 1014.15 1014.76 1015.26 1015.45 1015.87 1016.48 1016.95 1017.30 1017.50 1017.54 1017.70 1017.76 1017.72 1017.67 1017.41
1013.36 1012.95 1012.34 1012.01 1011.96 1011.52 1009.95 1008.39 1008.17 1007.92 1007.44 1007.08 1006.69 1006.29 1005.81 1005.45 1005.58 1005.70 1005.48 1005.56 1005.73 1005.90 1006.15 1006.43 1006.96 1007.63 1008.46 1009.47 1010.20 1011.27 1011.69 1012.61 1013.35 1013.99 1014.56 1015.12 1015.49 1015.65 1015.86 1016.58 1017.11 1017.43 1017.49 1017.84 1017.95 1018.00 1017.91 1017.94 1017.84
1013.81 1013.26 1012.58 1012.24 1012.11 1011.95 1010.29 1007.15 1007.60 1007.26 1006.07 1006.03 1005.71 1005.13 1004.87 1004.75 1004.78 1004.78 1004.99 1004.88 1005.17 1005.28 1005.75 1006.15 1006.58 1007.27 1008.10 1009.14 1009.91 1010.47 1011.55 1012.65 1013.54 1014.40 1015.05 1015.55 1015.86 1015.90 1016.01 1016.60 1017.20 1017.48 1017.77 1018.06 1018.26 1018.23 1018.07 1018.27 1018.46
1013.80 1013.40 1013.02 1012.90 1012.60 1012.09 1010.98 1007.01 1005.34 1004.40 1004.41 1004.48 1004.54 1004.42 1004.10 1003.80 1003.77 1003.76 1003.78 1004.02 1004.57 1004.79 1005.21 1005.71 1006.29 1006.93 1007.75 1008.93 1009.55 1010.66 1011.90 1013.08 1014.19 1014.90 1015.49 1015.97 1016.07 1016.09 1016.34 1016.85 1017.31 1017.74 1017.96 1018.29 1018.51 1018.56 1018.50 1018.43 1018.73
1013.72 1013.52 1013.48 1013.49 1013.29 1011.91 1011.41 1007.34 1005.03 1004.33 1003.84 1003.76 1003.56 1003.25 1003.09 1002.93 1002.97 1002.97 1002.86 1002.94 1003.47 1004.14 1004.77 1005.49 1006.15 1006.50 1007.42 1008.44 1009.45 1009.73 1010.12 1011.89 1013.56 1014.48 1015.38 1015.99 1016.19 1016.35 1016.67 1017.13 1017.50 1017.84 1018.11 1018.38 1018.64 1018.86 1018.97 1018.90 1018.83
1013.82 1013.92 1013.80 1013.63 1013.19 1012.44 1010.59 1010.36 1004.41 1004.27 1003.63 1003.23 1002.74 1002.38 1002.07 1001.97 1001.86 1002.04 1002.06 1002.24 1002.69 1003.38 1004.34 1005.16 1005.77 1006.28 1006.94 1008.15 1008.96 1009.49 1010.38 1011.68 1013.28 1014.60 1015.34 1015.82 1016.25 1016.64 1016.92 1017.39 1017.80 1018.06 1018.23 1018.55 1018.84 1019.08 1019.21 1019.29 1019.18
1014.14 1014.17 1014.05 1013.68 1013.35 1011.64 1008.42 1008.39 1004.92 1003.64 1002.64 1002.41 1002.26 1001.77 1001.51 1001.35 1001.26 1001.40 1001.58 1001.69 1002.03 1002.85 1003.99 1004.76 1005.33 1005.99 1006.94 1007.68 1008.28 1008.98 1010.18 1011.62 1013.28 1014.47 1015.17 1015.64 1016.26 1016.84 1017.24 1017.66 1018.02 1018.28 1018.45 1018.73 1019.05 1019.26 1019.40 1019.43 1019.51
1014.07 1014.19 1013.31 1013.10 1012.36 1009.24 1007.81 1006.68 1003.67 1003.47 1003.11 1002.65 1001.60 1001.35 1001.39 1001.16 1000.92 1000.92 1001.04 1001.34 1001.69 1002.45 1003.32 1004.14 1004.73 1005.56 1006.65 1007.37 1008.01 1009.08 1010.30 1011.18 1012.31 1013.58 1014.42 1015.06 1015.95 1016.76 1017.34 1017.64 1018.18 1018.42 1018.76 1018.98 1019.05 1019.20 1019.42 1019.52 1019.47
1013.31 1013.34 1012.38 1011.07 1009.66 1008.17 1007.41 1005.24 1001.91 1002.09 1002.32 1002.10 1001.85 1001.74 1001.40 1000.98 1000.52 1000.34 1000.46 1000.69 1001.16 1002.05 1002.77 1003.55 1004.16 1005.29 1006.22 1007.16 1008.20 1009.28 1010.55 1011.45 1012.18 1013.06 1013.85 1014.73 1015.58 1016.48 1017.27 1017.69 1018.34 1018.67 1018.86 1018.96 1019.03 1019.11 1019.35 1019.46 1019.44
1013.05 1012.86 1012.59 1011.89 1010.33 1009.26 1007.04 1004.27 1003.05 1001.63 1002.16 1001.71 1001.69 1001.65 1001.25 1000.88 1000.59 1000.32 1000.08 1000.44 1000.75 1001.24 1002.19 1003.11 1003.82 1004.87 1005.90 1006.96 1008.07 1009.34 1010.47 1011.33 1011.98 1013.19 1013.94 1014.74 1015.75 1016.65 1017.25 1017.90 1018.45 1018.78 1018.93 1018.92 1018.97 1019.02 1019.14 1019.28 1019.33
1012.51 1012.61 1012.70 1012.38 1010.21 1007.79 1005.09 1003.56 1001.58 1000.79 1000.91 1001.05 1001.28 1001.27 1001.03 1000.78 1000.38 1000.23 1000.00 1000.24 1000.61 1001.04 1001.80 1002.96 1003.97 1004.87 1005.98 1007.27 1008.33 1009.57 1010.38 1011.43 1012.12 1013.09 1014.04 1015.04 1016.00 1016.74 1017.37 1018.03 1018.50 1018.75 1018.81 1018.93 1018.98 1018.99 1019.09 1019.08 1019.03
1012.12 1012.11 1012.21 1011.65 1010.10 1007.85 1005.40 1002.29 1000.61 1000.78 1000.74 1000.63 1001.12 1001.24 1001.18 1000.95 1000.51 1000.31 1000.05 1000.24 1000.82 1001.22 1001.85 1002.97 1004.18 1005.30 1006.60 1007.84 1008.99 1009.95 1011.04 1011.67 1012.41 1013.39 1014.40 1015.32 1016.19 1016.91 1017.50 1018.10 1018.45 1018.66 1018.78 1018.89 1018.89 1018.84 1018.86 1018.89 1018.94
1010.22 1010.22 1010.74 1010.57 1009.17 1007.85 1006.27 1001.67 1001.33 1000.92 1001.08 1001.32 1001.25 1001.05 1001.23 1001.28 1000.66 1000.72 1000.53 1000.79 1001.28 1001.63 1002.16 1003.14 1004.49 1005.87 1007.04 1008.15 1009.16 1010.40 1011.27 1011.87 1012.80 1013.93 1014.89 1015.77 1016.48 1017.18 1017.75 1018.23 1018.47 1018.66 1018.88 1018.92 1018.79 1018.69 1018.72 1018.80 1018.80
Wind_Speed
10 7 3 4 7 5 7 4 4 3 4 1 4 8 4 8 4 2 4 7 6 15 15 17 16 15 15 14 13 11 9 8 8 10 9 7 7 6 7 5 5 5 6 7 7 7 8 7 8
7 5 3 2 7 9 7 6 7 2 5 8 5 6 8 3 1 4 9 6 9 14 14 15 16 16 15 14 12 11 10 9 9 9 8 5 7 6 7 7 6 5 6 6 6 7 7 7 6
4 4 4 4 8 12 6 8 5 1 4 3 3 3 3 2 1 3 6 10 11 14 13 13 17 17 14 13 12 10 9 10 9 9 6 5 5 4 7 6 6 5 6 5 6 6 5 5 5
4 4 3 10 15 10 9 1 3 4 3 1 3 6 3 2 1 3 5 8 12 14 13 15 18 15 14 13 12 11 10 10 10 9 4 3 1 4 5 5 7 7 5 4 4 3 4 4 5
4 3 10 11 18 16 9 8 7 9 5 4 6 1 2 3 2 4 9 9 12 13 11 15 16 15 15 14 13 11 10 9 9 7 4 3 6 6 6 4 8 6 4 3 3 5 5 5 5
6 5 9 16 18 10 10 10 10 12 8 8 6 6 0 4 3 6 9 9 9 11 11 13 13 14 15 13 13 12 10 9 8 7 4 3 6 9 4 10 7 5 3 3 5 6 5 5 5
12 9 15 17 15 14 11 8 12 11 11 10 4 7 3 3 6 7 9 10 10 11 11 10 12 11 13 12 11 11 11 9 8 7 4 5 6 8 7 9 6 3 3 4 5 5 5 6 6
6 7 15 13 16 19 6 7 5 8 10 1 3 7 5 6 5 8 8 9 10 11 10 10 10 11 12 11 10 9 9 9 8 6 7 6 5 5 7 5 6 4 3 5 6 9 8 9 9
3 8 13 19 16 11 4 10 7 2 7 4 4 4 4 3 4 7 8 9 10 10 11 10 10 11 11 10 10 9 8 8 9 8 7 5 2 4 5 7 4 3 5 6 8 9 8 4 7
11 11 16 10 13 8 9 8 6 6 11 10 8 5 1 2 6 9 10 11 12 13 13 11 10 10 11 8 11 10 9 8 7 7 6 3 3 3 1 4 4 5 6 9 8 7 3 3 4
9 16 13 7 10 9 12 12 10 11 14 14 11 5 2 2 3 9 10 10 10 11 11 13 12 11 10 9 8 6 5 5 5 7 6 5 4 4 4 3 4 3 3 2 2 2 4 6 5
9 12 12 9 9 9 12 10 13 16 19 11 9 6 8 10 9 7 9 9 9 10 12 13 14 12 12 8 8 8 7 7 6 7 7 6 4 4 4 3 3 3 3 3 3 3 4 5 5
12 11 9 10 10 13 15 20 21 19 17 16 15 13 15 14 13 10 8 8 9 11 12 13 14 14 13 12 9 9 8 8 8 7 8 6 5 5 5 4 4 3 2 3 3 3 4 5 6
1 6 10 9 14 16 18 22 18 21 19 21 23 23 20 18 16 12 9 10 11 12 13 14 15 15 14 12 13 10 9 9 8 7 8 8 5 5 5 5 4 4 3 3 3 4 4 4 5
6 10 12 15 13 13 10 20 20 24 23 24 21 20 21 21 19 17 14 12 11 11 11 13 15 15 15 15 13 11 9 9 8 7 10 8 7 8 8 5 4 4 4 4 3 3 3 4 5
5 6 6 3 2 7 10 16 5 3 8 18 22 22 22 23 23 21 18 13 10 11 10 10 11 15 16 15 13 10 10 9 8 7 7 9 10 10 7 5 5 5 4 3 3 4 3 4 5
8 8 9 9 4 6 12 11 3 8 9 12 15 15 15 19 22 21 19 16 13 11 11 10 11 14 16 15 12 11 12 9 7 7 7 10 10 10 8 6 6 5 4 4 3 3 5 6 7
5 8 7 10 3 6 15 21 20 18 20 19 19 19 16 15 16 16 17 15 12 10 10 10 9 12 15 10 11 8 8 7 7 7 7 11 8 10 9 7 7 5 4 4 3 4 4 6 7
2 6 10 8 7 15 17 23 21 21 22 22 21 22 22 22 16 16 15 13 11 10 9 10 11 13 13 12 12 8 9 8 7 6 10 10 9 9 11 7 7 5 6 5 5 3 5 5 8
14 16 16 14 12 11 18 32 23 24 29 26 25 24 24 23 22 19 18 16 13 13 11 11 13 15 15 12 11 7 10 7 7 6 8 8 9 8 9 9 7 7 6 6 5 5 3 4 6
16 17 14 16 15 18 21 28 17 7 13 18 23 26 27 26 24 23 22 20 14 13 13 13 14 16 16 15 11 11 10 9 6 6 5 5 7 9 10 9 8 7 5 5 5 5 6 4 3
14 8 13 13 10 7 2 15 14 13 14 14 14 14 17 21 23 24 23 21 18 15 13 13 15 17 16 18 14 19 12 13 8 8 6 6 7 10 10 10 8 7 5 5 5 4 4 3 4
7 4 7 9 11 12 18 7 13 4 14 11 13 15 16 16 18 20 23 22 18 15 14 15 16 18 19 18 16 13 14 9 10 8 12 9 9 10 10 9 9 8 5 6 5 4 3 3 2
3 7 9 11 8 10 21 15 19 19 15 11 12 13 14 12 13 16 17 17 16 12 15 16 19 18 18 15 18 15 19 17 12 11 9 8 8 8 9 9 7 7 7 6 5 4 3 1 1
11 5 3 5 7 10 6 12 21 13 10 17 22 19 14 13 11 12 14 14 15 17 18 17 20 19 19 18 16 16 18 18 19 17 11 13 9 8 9 9 7 6 6 5 5 3 2 1 3
18 14 6 8 11 12 5 14 13 20 17 17 13 13 8 10 11 13 13 13 16 18 19 20 21 19 19 18 16 14 15 11 12 13 12 9 8 9 9 8 7 7 6 5 4 2 1 2 3
6 10 13 19 20 14 16 22 18 23 15 19 12 7 8 10 12 12 11 10 14 18 20 20 20 19 19 18 15 15 13 13 14 13 13 10 10 9 10 9 7 6 5 4 3 1 2 3 3
14 1 5 7 7 19 14 16 14 12 9 15 12 8 10 12 14 14 10 10 13 15 17 17 18 18 18 17 15 11 12 15 14 14 13 13 11 11 10 9 7 6 5 3 2 2 2 4 3
11 9 7 6 9 9 14 16 11 9 12 13 7 10 13 12 12 14 8 8 11 14 16 17 17 18 17 16 13 14 12 13 13 13 13 12 12 11 10 8 7 5 4 2 2 2 3 5 5
16 16 19 10 12 7 10 22 12 13 10 8 12 12 10 10 10 12 6 7 11 14 16 17 16 16 16 14 15 13 13 14 15 13 13 12 11 9 9 7 6 5 3 1 2 4 4 6 6
Wind_Direction
305 316 295 240 247 238 245 219 271 257 221 334 309 264 307 320 265 3 100 154 153 154 159 166 160 158 158 153 145 139 130 122 129 117 105 109 120 115 112 121 99 76 45 44 46 43 35 26 22
316 296 231 260 253 238 226 222 217 193 332 309 275 236 242 271 315 80 129 150 166 156 159 165 161 159 158 154 149 146 138 128 130 118 126 136 134 154 147 161 132 99 63 55 53 49 45 38 33
256 298 261 244 241 241 262 207 196 358 319 280 269 237 287 40 104 52 76 148 167 161 162 141 156 152 157 157 152 150 147 139 137 140 161 169 162 167 155 154 124 104 83 72 65 53 40 26 15
216 187 185 240 235 238 253 108 154 314 179 255 330 258 204 41 29 63 124 150 165 169 166 135 147 154 158 159 157 153 150 152 153 148 126 66 283 212 193 173 138 126 107 85 69 33 18 4 1
208 233 238 238 245 249 237 262 271 275 292 278 320 223 279 110 71 128 144 156 163 168 172 158 154 159 157 160 161 158 156 159 167 170 154 96 50 10 220 157 132 128 112 80 36 17 3 348 354
193 251 227 233 235 224 248 257 264 267 265 284 261 261 359 109 179 136 149 157 160 168 174 155 158 161 159 163 165 162 162 163 172 177 177 111 57 23 131 143 134 135 99 31 15 1 353 1 6
235 218 235 246 245 243 237 244 247 264 270 254 273 250 93 148 106 141 148 149 162 178 174 168 171 166 161 164 165 164 162 165 167 172 167 96 74 51 79 117 123 112 53 28 12 353 353 24 29
241 244 238 233 240 243 210 206 250 242 259 22 248 229 212 59 124 147 151 156 167 172 176 176 170 178 179 170 163 164 161 154 152 141 109 94 106 89 84 105 87 76 47 30 16 40 43 57 55
233 230 233 228 237 230 213 217 203 196 248 218 202 271 45 73 165 171 167 172 174 179 180 184 178 183 182 178 160 169 168 161 151 142 119 160 198 175 170 72 73 54 57 47 58 60 54 77 86
216 229 240 248 252 243 229 240 259 237 213 223 223 196 149 145 195 206 201 193 190 186 185 182 190 192 184 180 169 186 173 181 182 179 167 180 164 149 133 105 97 74 82 85 80 70 52 315 359
210 240 233 234 251 256 251 249 233 243 242 235 236 245 286 326 233 232 234 229 204 197 187 188 184 193 195 186 186 184 183 183 181 180 175 150 154 166 179 151 158 160 108 95 143 93 32 17 4
238 240 262 260 236 255 247 263 248 244 249 274 270 276 286 282 279 262 243 236 212 210 201 195 186 187 192 191 192 190 189 184 186 187 179 171 162 158 159 144 90 87 69 86 29 25 24 12 356
236 254 253 254 258 259 270 256 259 266 257 257 260 261 270 271 272 265 251 247 219 213 210 200 196 193 188 198 196 191 200 193 191 183 186 174 164 160 126 106 91 94 70 38 36 14 5 358 344
297 269 268 271 262 262 260 262 256 253 260 256 255 254 255 257 258 265 243 240 224 218 215 201 201 197 194 195 193 191 194 193 188 180 179 176 161 137 126 108 96 93 67 45 29 17 356 345 337
275 280 276 261 252 259 262 263 245 254 249 253 253 249 248 247 250 255 259 252 236 227 228 210 206 194 200 200 193 191 184 186 187 182 175 161 147 135 125 124 127 99 82 63 40 16 346 339 337
252 263 281 88 275 233 220 267 286 261 228 252 254 253 251 246 247 247 251 252 248 242 220 220 211 205 195 202 197 189 181 179 187 168 158 145 139 130 121 128 114 106 90 69 49 5 356 352 345
214 258 233 281 248 282 216 274 290 253 287 275 263 262 261 252 248 246 251 255 255 241 231 217 215 209 202 199 186 184 177 167 160 153 149 140 135 132 131 133 116 107 96 77 52 39 11 3 348
227 225 232 252 166 272 272 267 269 268 275 275 273 266 255 253 253 248 244 243 250 246 234 224 209 204 194 183 176 162 154 144 143 142 142 137 139 142 132 122 119 119 111 88 81 52 42 11 345
298 267 260 255 272 301 272 272 272 275 272 266 261 261 259 256 249 257 256 249 244 244 232 211 194 188 176 171 165 160 156 142 133 122 133 129 129 138 133 126 123 118 99 87 63 65 33 25 353
249 261 265 280 274 274 287 286 285 274 265 260 258 254 252 253 251 242 249 247 240 236 220 206 196 187 180 179 181 158 152 135 126 109 109 117 133 138 131 132 125 116 112 92 70 45 48 39 14
241 254 270 277 296 287 281 281 272 265 267 259 252 256 258 254 248 245 238 238 234 230 215 204 193 185 179 177 159 136 117 119 112 106 106 117 134 134 128 127 123 118 109 99 80 56 35 24 44
263 263 257 258 276 274 54 292 299 291 287 264 263 250 251 251 244 245 240 235 227 223 211 197 194 182 173 171 169 167 154 155 154 142 125 134 136 133 127 127 128 121 116 110 92 72 52 8 14
238 214 243 254 257 280 248 248 277 259 282 266 270 259 272 269 248 240 236 232 225 216 195 189 187 179 168 175 173 168 155 136 133 130 134 138 142 135 131 131 129 123 113 106 104 100 74 48 357
109 227 255 260 263 246 249 221 276 274 286 286 277 262 287 282 253 244 246 234 225 200 187 183 181 176 171 171 176 166 155 143 137 145 143 151 145 139 135 133 126 125 123 123 118 110 92 66 317
221 203 250 228 208 244 289 220 235 279 283 272 280 290 299 303 276 267 242 231 219 192 183 182 179 173 173 169 168 160 155 150 148 155 158 157 151 150 144 138 141 133 127 129 129 125 150 227 286
208 210 224 251 257 284 263 239 234 246 259 260 269 281 302 323 299 263 243 229 211 195 185 181 178 169 171 167 161 151 150 155 148 158 156 155 153 148 147 137 139 136 138 137 143 148 204 247 265
180 218 243 272 267 266 254 262 268 260 247 255 265 288 318 348 352 297 259 223 208 187 183 184 178 171 169 162 149 149 150 155 150 148 153 146 137 141 142 143 144 145 144 144 151 195 240 251 278
226 338 205 203 259 251 244 244 258 273 267 251 219 276 321 333 347 335 266 223 202 187 177 179 176 168 159 150 151 136 148 152 139 144 143 142 140 140 142 146 149 151 149 154 195 229 231 280 302
196 225 211 277 255 268 277 269 293 277 272 255 243 296 309 320 347 340 285 221 195 173 168 168 166 159 156 152 130 132 138 137 131 139 137 137 137 141 143 148 151 153 157 169 237 270 282 302 311
236 237 223 233 233 220 264 269 266 265 264 234 279 302 319 317 358 346 299 198 179 167 162 159 155 158 151 132 128 136 134 133 134 134 132 137 134 137 139 145 146 145 151 224 293 298 301 303 300